FENGYUN 1C DEB, 29854

Orbit data source: Space-Track

FENGYUN 1C DEB, 29854 is space debris in SSO originally from a launch on Mon, 10 May 1999 UTC launched from the Taiyaun Space Center, China (TSC). Fengyun 1C debris stems from the Chinese weather satellite Fengyun-1C, which was intentionally destroyed by a Chinese anti-satellite missile in 2007. This event dramatically increased the amount of space debris, with thousands of trackable fragments posing hazards to satellites and human spaceflight. The Fengyun 1C debris cloud has become a focal point in discussions about space sustainability and the need for international regulations to prevent the creation of new debris.

Loading next visibility...
Identifier
29854, 1999-025EY
Orbit
SSO
Country
Flag of CNCN / PRC
Related business
Manufacturer
Unknown
Mission
Spacecraft
Bus & Motor
Unknown
Mass
Unknown
Launch date (UTC)
1999-05-10 (27 years ago)
Launch vehicle
Unknown
Launch site
Taiyaun Space Center, China (TSC)
Object type
Payload
Rocket body
Debris
Shape & HBR
Unknown shape, 0.1 m
Radar Cross Section
Medium (>0.1 m² and <1 m²)

Expand to show TLE details & history
Last TLE update: 22 hours ago

TLE from 22 hours ago
0 FENGYUN 1C DEB
1 29854U 99025EY  26207.41691406  .00000339  00000-0  31713-3 0  9994
2 29854  98.9564   2.5281 0146923 162.5063 224.1449 13.83524820984640
Epoch: 2026-07-26T10:00Z
TLE epoch observation values (Epoch: 2026-07-26T10:00:21.374Z)
Latitude
25.19038°
Longitude
-95.90545°
Altitude
1,032.457 km
Speed
7.299 km/s
True Right ascension
23h 53m 11s
True Declination
25° 03' 47"
Sunlit
Object was in daylight at epoch
Visualization orbit readout
Latitude
Unknown
Longitude
Unknown
Altitude
Unknown
Speed
Unknown
Apparent Right ascension
Unknown
Apparent Declination
Unknown
Sunlit
N/A
Visualization observer readout
Local Sidereal Time
21:06:21
Azimuth
Unknown
Elevation
Unknown
Doppler factor
Unknown
Orbital elements
Apogee altitude
1,056.277 km
Perigee altitude
840.983 km
Semi-major axis
7,326.767 km
Eccentricity
0.01469
Inclination
98.9564°
RAAN
2.5281°
Arg. of periapsis
162.5063°
True anomaly
222.98764°
Mean anomaly
224.1449°
Eccentric anomaly
223.56475°
Mean motion
3.46079 °/min
Orbital period
104.02 mins
BSTAR
0.00031713
Loading maneuver chart data...
Computing Atmospheric mass density...

Documentation

Showing up to 5 results
|